HODOYOSHI-4

Last updated on Mon Sep 15 2025 00:02:30 GMT+0000 (Coordinated Universal Time)

1 40011U 14033B 25257.32842156 .00001187 00000+0 13753-3 0 9997 2 40011 97.5497 90.6159 0025023 137.1182 223.1992 14.87018115607797
UTC large
Height (km)
Speed (km/s)
/
Latitude / Longitude
Inclination (degrees)
Orbital Period (minutes)
Azimuth
Elevation
Range (km)
Doppler Factor

Next 0 passes for location: London (51.5072 / 0.1276)

Sorry there are no passes over London.